When you browse on this site, cookies collect data to enhance your experience and personalize the content and advertising you see.
Visit our Privacy Policy to learn more. By continuing to use the site, you agree to this use of cookies and data.
  • In Hungary
  • List of Countries
  • For 7 days
  • Water Temperature
  • Satellite Maps
  • Weather Map
  • News
  • Weather Widgets
  • user-avatar
    Login

    Hourly Weather Tabarka

    Today, 21 April, Sunday

    Time Temperature Precipitation Wind Pressure Humidity
    00:00 +10°C° 0 mm 2 mps 707 mmHg 89%
    01:00 +9°C° 0 mm 2 mps 706 mmHg 91%
    02:00 +9°C° 0 mm 2 mps 706 mmHg 91%
    03:00 +9°C° 0 mm 2 mps 705 mmHg 91%
    04:00 +9°C° 0 mm 1 mps 705 mmHg 91%
    05:00 +10°C° 0 mm 1 mps 705 mmHg 89%
    06:00 +10°C° 0 mm 2 mps 704 mmHg 88%
    07:00 +10°C° 0 mm 2 mps 704 mmHg 86%
    08:00 +13°C° 0 mm 2 mps 704 mmHg 80%
    09:00 +15°C° 0 mm 2 mps 704 mmHg 73%
    10:00 +17°C° 0 mm 2 mps 704 mmHg 67%
    11:00 +19°C° 0 mm 3 mps 704 mmHg 61%
    12:00 +21°C° 0 mm 3 mps 703 mmHg 55%
    13:00 +23°C° 0 mm 4 mps 703 mmHg 50%
    14:00 +25°C° 0 mm 5 mps 703 mmHg 47%
    15:00 +26°C° 0 mm 6 mps 702 mmHg 44%
    16:00 +27°C° 0 mm 7 mps 702 mmHg 41%
    17:00 +24°C° 0 mm 7 mps 701 mmHg 50%
    18:00 +21°C° 0 mm 6 mps 700 mmHg 59%
    19:00 +17°C° 0 mm 5 mps 699 mmHg 67%
    20:00 +15°C° 0 mm 4 mps 699 mmHg 73%
    21:00 +14°C° 0 mm 4 mps 699 mmHg 80%
    22:00 +12°C° 0 mm 3 mps 699 mmHg 86%
    23:00 +12°C° 0 mm 3 mps 699 mmHg 87%

    Tomorrow, 22 April, Monday

    Time Temperature Precipitation Wind Pressure Humidity
    00:00 +11°C° 0 mm 3 mps 698 mmHg 88%
    01:00 +11°C° 0 mm 3 mps 698 mmHg 89%
    02:00 +11°C° 0 mm 3 mps 697 mmHg 88%
    03:00 +10°C° 0 mm 3 mps 696 mmHg 87%
    04:00 +10°C° 0 mm 3 mps 696 mmHg 86%
    05:00 +12°C° 0 mm 3 mps 696 mmHg 78%
    06:00 +13°C° 0 mm 4 mps 696 mmHg 70%
    07:00 +14°C° 0 mm 4 mps 696 mmHg 61%
    08:00 +17°C° 0 mm 6 mps 697 mmHg 53%
    09:00 +20°C° 0 mm 8 mps 697 mmHg 46%
    10:00 +23°C° 0 mm 9 mps 698 mmHg 38%
    11:00 +23°C° 0 mm 8 mps 698 mmHg 40%
    12:00 +23°C° 0 mm 7 mps 698 mmHg 42%
    13:00 +23°C° 0 mm 6 mps 698 mmHg 44%
    14:00 +22°C° 0.2 mm 5 mps 698 mmHg 48%
    15:00 +21°C° 0.2 mm 5 mps 698 mmHg 52%
    16:00 +21°C° 0.2 mm 4 mps 698 mmHg 55%
    17:00 +19°C° 0.8 mm 3 mps 699 mmHg 64%
    18:00 +17°C° 0.8 mm 2 mps 699 mmHg 72%
    19:00 +15°C° 0.8 mm 1 mps 700 mmHg 80%
    20:00 +14°C° 0.2 mm 1 mps 700 mmHg 81%
    21:00 +14°C° 0.2 mm 1 mps 701 mmHg 83%
    22:00 +13°C° 0.2 mm 1 mps 702 mmHg 84%
    23:00 +13°C° 0.2 mm 1 mps 702 mmHg 82%

    Day after tomorrow, 23 April, Tuesday

    Time Temperature Precipitation Wind Pressure Humidity
    00:00 +12°C° 0.2 mm 1 mps 702 mmHg 81%
    01:00 +12°C° 0.2 mm 1 mps 702 mmHg 79%
    02:00 +12°C° 0 mm 1 mps 702 mmHg 78%
    03:00 +11°C° 0 mm 1 mps 702 mmHg 78%
    04:00 +11°C° 0 mm 1 mps 702 mmHg 77%
    05:00 +12°C° 0 mm 1 mps 702 mmHg 77%
    06:00 +12°C° 0 mm 1 mps 703 mmHg 77%
    07:00 +13°C° 0 mm 1 mps 703 mmHg 77%
    08:00 +15°C° 0 mm 1 mps 704 mmHg 69%
    09:00 +17°C° 0 mm 0 mps 704 mmHg 60%
    10:00 +19°C° 0 mm 0 mps 705 mmHg 52%
    11:00 +22°C° 0 mm 1 mps 705 mmHg 46%
    12:00 +24°C° 0 mm 1 mps 705 mmHg 40%
    13:00 +25°C° 0 mm 2 mps 705 mmHg 34%
    14:00 +25°C° 0 mm 2 mps 705 mmHg 36%
    15:00 +25°C° 0 mm 2 mps 705 mmHg 38%
    16:00 +25°C° 0 mm 3 mps 705 mmHg 39%
    17:00 +21°C° 0 mm 2 mps 705 mmHg 51%
    18:00 +19°C° 0 mm 2 mps 705 mmHg 63%
    19:00 +16°C° 0 mm 2 mps 705 mmHg 75%
    20:00 +15°C° 0 mm 1 mps 706 mmHg 80%
    21:00 +14°C° 0 mm 1 mps 706 mmHg 86%
    22:00 +12°C° 0 mm 0 mps 707 mmHg 91%
    23:00 +13°C° 0 mm 1 mps 707 mmHg 92%

    24 April, Wednesday

    Time Temperature Precipitation Wind Pressure Humidity
    00:00 +13°C° 0 mm 1 mps 707 mmHg 92%
    01:00 +13°C° 0 mm 1 mps 707 mmHg 93%
    02:00 +13°C° 0 mm 1 mps 707 mmHg 93%
    03:00 +12°C° 0 mm 1 mps 707 mmHg 94%
    04:00 +12°C° 0 mm 2 mps 706 mmHg 94%
    05:00 +13°C° 0 mm 2 mps 707 mmHg 91%
    06:00 +14°C° 0 mm 2 mps 707 mmHg 87%
    07:00 +14°C° 0 mm 2 mps 708 mmHg 84%
    08:00 +17°C° 0 mm 2 mps 708 mmHg 72%
    09:00 +21°C° 0 mm 1 mps 709 mmHg 60%
    10:00 +23°C° 0 mm 1 mps 710 mmHg 48%
    11:00 +23°C° 0 mm 2 mps 710 mmHg 51%
    12:00 +24°C° 0 mm 3 mps 710 mmHg 53%
    13:00 +24°C° 0 mm 3 mps 710 mmHg 55%
    14:00 +22°C° 0 mm 3 mps 710 mmHg 60%
    15:00 +21°C° 0 mm 3 mps 710 mmHg 66%
    16:00 +19°C° 0 mm 3 mps 710 mmHg 71%
    17:00 +18°C° 0.7 mm 3 mps 710 mmHg 78%
    18:00 +16°C° 0.7 mm 2 mps 710 mmHg 84%
    19:00 +15°C° 0.7 mm 2 mps 710 mmHg 91%
    20:00 +14°C° 0.1 mm 1 mps 710 mmHg 92%
    21:00 +14°C° 0.1 mm 1 mps 711 mmHg 94%
    22:00 +13°C° 0.1 mm 1 mps 711 mmHg 95%
    23:00 +13°C° 0.1 mm 1 mps 711 mmHg 94%

    25 April, Thursday

    Time Temperature Precipitation Wind Pressure Humidity
    00:00 +13°C° 0.1 mm 1 mps 711 mmHg 94%
    01:00 +13°C° 0.1 mm 1 mps 711 mmHg 93%
    02:00 +13°C° 0 mm 1 mps 710 mmHg 93%
    03:00 +13°C° 0 mm 1 mps 710 mmHg 92%
    04:00 +13°C° 0 mm 1 mps 710 mmHg 92%
    05:00 +13°C° 0 mm 1 mps 710 mmHg 89%
    06:00 +14°C° 0 mm 1 mps 711 mmHg 86%
    07:00 +15°C° 0 mm 1 mps 711 mmHg 82%
    08:00 +18°C° 0 mm 1 mps 712 mmHg 73%
    09:00 +20°C° 0 mm 1 mps 712 mmHg 64%
    10:00 +22°C° 0 mm 1 mps 713 mmHg 55%
    11:00 +23°C° 0 mm 2 mps 713 mmHg 54%
    12:00 +24°C° 0 mm 2 mps 713 mmHg 53%
    13:00 +25°C° 0 mm 2 mps 713 mmHg 52%
    14:00 +24°C° 0 mm 3 mps 713 mmHg 56%
    15:00 +24°C° 0 mm 3 mps 712 mmHg 59%
    16:00 +22°C° 0 mm 3 mps 712 mmHg 63%
    17:00 +20°C° 0 mm 2 mps 712 mmHg 71%
    18:00 +18°C° 0 mm 2 mps 713 mmHg 79%
    19:00 +16°C° 0 mm 2 mps 713 mmHg 87%
    20:00 +15°C° 0 mm 1 mps 713 mmHg 89%
    21:00 +14°C° 0 mm 1 mps 714 mmHg 92%
    22:00 +13°C° 0 mm 1 mps 714 mmHg 95%
    23:00 +13°C° 0 mm 1 mps 714 mmHg 95%

    26 April, Friday

    Time Temperature Precipitation Wind Pressure Humidity
    00:00 +12°C° 0 mm 1 mps 714 mmHg 95%
    01:00 +12°C° 0 mm 1 mps 714 mmHg 95%
    02:00 +12°C° 0 mm 1 mps 714 mmHg 95%
    03:00 +12°C° 0 mm 1 mps 714 mmHg 94%
    04:00 +11°C° 0 mm 1 mps 714 mmHg 94%
    05:00 +12°C° 0 mm 1 mps 714 mmHg 91%
    06:00 +13°C° 0 mm 1 mps 715 mmHg 88%
    07:00 +14°C° 0 mm 1 mps 715 mmHg 84%
    08:00 +16°C° 0 mm 1 mps 716 mmHg 75%
    09:00 +18°C° 0 mm 2 mps 716 mmHg 66%
    10:00 +20°C° 0 mm 2 mps 717 mmHg 57%
    11:00 +21°C° 0 mm 2 mps 717 mmHg 54%
    12:00 +21°C° 0 mm 3 mps 717 mmHg 51%
    13:00 +22°C° 0 mm 3 mps 717 mmHg 48%
    14:00 +22°C° 0 mm 3 mps 716 mmHg 50%
    15:00 +21°C° 0 mm 3 mps 716 mmHg 51%
    16:00 +21°C° 0 mm 3 mps 716 mmHg 53%
    17:00 +19°C° 0 mm 3 mps 716 mmHg 60%
    18:00 +17°C° 0 mm 2 mps 716 mmHg 67%
    19:00 +15°C° 0 mm 2 mps 716 mmHg 74%
    20:00 +14°C° 0 mm 1 mps 716 mmHg 78%
    21:00 +13°C° 0 mm 1 mps 716 mmHg 82%
    22:00 +12°C° 0 mm 1 mps 717 mmHg 86%
    23:00 +11°C° 0 mm 1 mps 717 mmHg 87%
    Show more